Location: Artiguedieu
(43.5000°N, 0.5454°E)
Time: 12:02:48
(UTC+00:00)

Transit 2A Rocket - Visible Passes

Search period start: 03 August 2021 00:00
Search period end: 13 August 2021 00:00
Orbit: 589 x 913 km, 66.7° (Epoch: 02 August)

Date Brightness Start Highest point End Pass type
(mag) Time Alt. Az. Time Alt. Az. Time Alt. Az.
03 Aug 6.4 21:06:18 10° NNW 21:11:12 32° NE 21:14:15 20° E visible
03 Aug 5.6 22:48:35 10° NW 22:54:01 50° WSW 22:54:08 50° WSW visible
04 Aug 6.8 20:24:03 10° N 20:28:15 22° NE 20:32:39 10° E visible
04 Aug 5.2 22:05:49 10° NNW 22:11:26 81° WSW 22:12:33 60° SSE visible
04 Aug 7.5 23:50:49 10° WNW 23:52:26 13° W 23:52:26 13° W visible
05 Aug 7.2 19:42:00 10° N 19:45:10 15° NE 19:48:26 10° ENE visible
05 Aug 5.3 21:23:13 10° NNW 21:28:46 64° ENE 21:31:00 38° ESE visible
05 Aug 6.8 23:06:41 10° WNW 23:10:53 22° WSW 23:10:53 22° WSW visible
06 Aug 5.9 20:40:44 10° NNW 20:45:59 41° NE 20:49:30 21° ESE visible
06 Aug 6.1 22:23:24 10° NW 22:28:34 36° WSW 22:29:23 35° SW visible
07 Aug 6.5 19:58:23 10° NNW 20:03:06 28° NE 20:08:02 10° ESE visible
07 Aug 5.5 21:40:29 10° NW 21:46:04 60° WSW 21:47:56 41° S visible
08 Aug 5.2 20:57:47 10° NNW 21:03:26 86° ENE 21:06:32 30° SSE visible
08 Aug 7.3 22:42:03 10° WNW 22:45:26 16° WSW 22:46:26 15° WSW visible
09 Aug 5.5 20:15:13 10° NNW 20:20:44 55° NE 20:25:11 17° SE visible
09 Aug 6.8 21:58:22 10° NW 22:03:05 27° WSW 22:05:06 22° SW visible
10 Aug 6.1 19:32:47 10° NNW 19:37:55 36° NE 19:43:21 10° ESE visible
10 Aug 6.1 21:15:15 10° NW 21:20:38 44° WSW 21:23:48 24° S visible
11 Aug 5.4 20:32:25 10° NW 20:38:05 71° WSW 20:42:35 18° SSE visible
11 Aug 7.7 22:18:23 10° W 22:19:50 11° WSW 22:21:19 10° WSW visible
12 Aug 5.3 19:49:46 10° NNW 19:55:26 74° ENE 20:01:25 10° SE visible
12 Aug 7.3 21:33:33 10° WNW 21:37:33 19° WSW 21:41:21 11° SSW visible
